N378JS KPSM-KBDL

Flight info

Callsign N378JS
Flight time 0h 40m
Altitude 14000
Route CLOWW
Aircraft P180/L-SBDFGM3RWXY/LB1

Departure

Time 2026-04-19 02:48
Airport Portsmouth International Airport at Pease (KPSM)

Arrival

Time 2026-04-19 03:28
Airport Bradley International Airport (KBDL)
Time Latitude Longitude Altitude Speed Heading
2026-04-19 02:17 43.07899 -70.81774 88 ft 0 kts 150°
2026-04-19 02:32 43.07893 -70.81772 88 ft 2 kts 165°
2026-04-19 02:32 43.07869 -70.81774 89 ft 0 kts 188°
2026-04-19 02:33 43.07866 -70.81775 89 ft 1 kts 195°
2026-04-19 02:33 43.07864 -70.81797 89 ft 4 kts 303°
2026-04-19 02:33 43.07884 -70.81812 89 ft 0 kts 332°
2026-04-19 02:34 43.07885 -70.81813 89 ft 1 kts 332°
2026-04-19 02:34 43.07911 -70.81832 91 ft 4 kts 331°
2026-04-19 02:34 43.07917 -70.81836 90 ft 3 kts 332°
2026-04-19 02:35 43.07941 -70.81854 88 ft 6 kts 331°
2026-04-19 02:35 43.07950 -70.81888 90 ft 2 kts 237°
2026-04-19 02:35 43.07949 -70.81889 91 ft 0 kts 237°
2026-04-19 02:36 43.07947 -70.81894 90 ft 2 kts 236°
2026-04-19 02:37 43.07938 -70.81912 89 ft 3 kts 236°
2026-04-19 02:37 43.07933 -70.81944 93 ft 4 kts 270°
2026-04-19 02:37 43.07942 -70.81986 94 ft 6 kts 304°
2026-04-19 02:37 43.07986 -70.82027 92 ft 10 kts 328°
2026-04-19 02:38 43.08062 -70.82090 91 ft 15 kts 329°
2026-04-19 02:38 43.08156 -70.82167 92 ft 13 kts 329°
2026-04-19 02:38 43.08250 -70.82243 94 ft 17 kts 329°
2026-04-19 02:38 43.08296 -70.82281 95 ft 0 kts 329°
2026-04-19 02:39 43.08308 -70.82292 95 ft 4 kts 328°
2026-04-19 02:39 43.08340 -70.82317 96 ft 7 kts 329°
2026-04-19 02:39 43.08344 -70.82320 96 ft 0 kts 329°
2026-04-19 02:41 43.08350 -70.82325 96 ft 2 kts 329°
2026-04-19 02:41 43.08368 -70.82340 97 ft 4 kts 329°
2026-04-19 02:42 43.08399 -70.82366 98 ft 6 kts 328°
2026-04-19 02:42 43.08444 -70.82405 99 ft 9 kts 327°
2026-04-19 02:42 43.08486 -70.82441 99 ft 12 kts 327°
2026-04-19 02:42 43.08596 -70.82528 99 ft 11 kts 330°
2026-04-19 02:43 43.08655 -70.82576 100 ft 12 kts 328°
2026-04-19 02:43 43.08710 -70.82623 98 ft 16 kts 327°
2026-04-19 02:43 43.08808 -70.82703 97 ft 13 kts 328°
2026-04-19 02:43 43.08928 -70.82804 96 ft 18 kts 328°
2026-04-19 02:44 43.09044 -70.82899 97 ft 17 kts 330°
2026-04-19 02:44 43.09145 -70.82985 99 ft 20 kts 328°
2026-04-19 02:44 43.09209 -70.83038 99 ft 12 kts 327°
2026-04-19 02:44 43.09238 -70.83101 100 ft 4 kts 282°
2026-04-19 02:45 43.09231 -70.83146 100 ft 8 kts 244°
2026-04-19 02:45 43.09214 -70.83194 101 ft 3 kts 245°
2026-04-19 02:45 43.09205 -70.83218 101 ft 6 kts 239°
2026-04-19 02:45 43.09178 -70.83278 103 ft 8 kts 239°
2026-04-19 02:46 43.09145 -70.83353 105 ft 8 kts 239°
2026-04-19 02:46 43.09121 -70.83386 105 ft 2 kts 199°
2026-04-19 02:46 43.09078 -70.83393 104 ft 9 kts 152°
2026-04-19 02:46 43.09053 -70.83356 103 ft 3 kts 128°
2026-04-19 02:47 43.09036 -70.83334 102 ft 0 kts 149°
2026-04-19 02:47 43.08974 -70.83283 101 ft 45 kts 149°
2026-04-19 02:47 43.08484 -70.82880 110 ft 111 kts 148°
2026-04-19 02:47 43.07807 -70.82381 622 ft 113 kts 152°
2026-04-19 02:48 43.06993 -70.82091 999 ft 140 kts 172°
2026-04-19 02:48 43.05981 -70.82019 1596 ft 151 kts 184°
2026-04-19 02:48 43.04959 -70.82431 2263 ft 157 kts 203°
2026-04-19 02:48 43.03984 -70.83135 2855 ft 162 kts 206°
2026-04-19 02:49 43.02903 -70.83885 3004 ft 188 kts 205°
2026-04-19 02:49 43.01686 -70.84691 3011 ft 197 kts 205°
2026-04-19 02:49 43.00445 -70.85530 3009 ft 200 kts 205°
2026-04-19 02:49 42.99191 -70.86394 3012 ft 202 kts 206°
2026-04-19 02:50 42.97949 -70.87248 3193 ft 194 kts 206°
2026-04-19 02:50 42.96785 -70.88048 3568 ft 181 kts 206°
2026-04-19 02:50 42.95905 -70.89176 3929 ft 176 kts 240°
2026-04-19 02:51 42.95232 -70.92298 4697 ft 171 kts 250°
2026-04-19 02:51 42.94878 -70.93850 5149 ft 171 kts 249°
2026-04-19 02:51 42.94517 -70.95390 5688 ft 170 kts 249°
2026-04-19 02:51 42.94155 -70.96938 6176 ft 172 kts 250°
2026-04-19 02:52 42.93793 -70.98497 6658 ft 173 kts 250°
2026-04-19 02:52 42.93429 -71.00063 7091 ft 174 kts 250°
2026-04-19 02:52 42.93061 -71.01642 7517 ft 175 kts 250°
2026-04-19 02:52 42.92689 -71.03236 7945 ft 177 kts 250°
2026-04-19 02:53 42.92314 -71.04845 8373 ft 178 kts 251°
2026-04-19 02:53 42.91936 -71.06463 8790 ft 180 kts 251°
2026-04-19 02:53 42.91554 -71.08097 9196 ft 181 kts 251°
2026-04-19 02:53 42.91169 -71.09741 9597 ft 183 kts 251°
2026-04-19 02:54 42.90779 -71.11405 9910 ft 189 kts 251°
2026-04-19 02:54 42.90364 -71.13175 9987 ft 203 kts 251°
2026-04-19 02:54 42.89921 -71.15064 10000 ft 215 kts 251°
2026-04-19 02:54 42.89456 -71.17047 10011 ft 223 kts 251°
2026-04-19 02:55 42.88975 -71.19095 10014 ft 230 kts 251°
2026-04-19 02:55 42.88490 -71.21158 9993 ft 234 kts 251°
2026-04-19 02:55 42.87990 -71.23286 9997 ft 237 kts 251°
2026-04-19 02:55 42.87485 -71.25432 9992 ft 239 kts 251°
2026-04-19 02:56 42.86977 -71.27588 9993 ft 240 kts 251°
2026-04-19 02:56 42.86465 -71.29757 9994 ft 241 kts 251°
2026-04-19 02:56 42.85951 -71.31934 9990 ft 241 kts 251°
2026-04-19 02:56 42.85436 -71.34113 9989 ft 242 kts 251°
2026-04-19 02:57 42.84919 -71.36295 9990 ft 242 kts 251°
2026-04-19 02:57 42.84401 -71.38482 9993 ft 242 kts 251°
2026-04-19 02:57 42.83883 -71.40666 9991 ft 242 kts 251°
2026-04-19 02:57 42.83365 -71.42850 10008 ft 243 kts 251°
2026-04-19 02:58 42.82846 -71.45036 10009 ft 242 kts 251°
2026-04-19 02:58 42.81813 -71.49379 10001 ft 242 kts 251°
2026-04-19 02:58 42.81291 -71.51566 10012 ft 242 kts 251°
2026-04-19 02:59 42.80771 -71.53749 10007 ft 242 kts 251°
2026-04-19 02:59 42.80250 -71.55932 10006 ft 242 kts 251°
2026-04-19 02:59 42.79729 -71.58114 9998 ft 242 kts 251°
2026-04-19 02:59 42.79207 -71.60293 9996 ft 242 kts 251°
2026-04-19 03:00 42.78686 -71.62472 10004 ft 242 kts 251°
2026-04-19 03:00 42.78164 -71.64650 10009 ft 242 kts 251°
2026-04-19 03:00 42.77642 -71.66826 9998 ft 242 kts 251°
2026-04-19 03:00 42.77119 -71.69004 9967 ft 242 kts 251°
2026-04-19 03:01 42.76596 -71.71182 9971 ft 242 kts 251°
2026-04-19 03:01 42.76074 -71.73350 9968 ft 242 kts 251°
2026-04-19 03:01 42.75550 -71.75527 9967 ft 242 kts 251°
2026-04-19 03:01 42.75027 -71.77698 9951 ft 241 kts 251°
2026-04-19 03:02 42.74504 -71.79868 9943 ft 241 kts 251°
2026-04-19 03:02 42.73981 -71.82033 9942 ft 241 kts 251°
2026-04-19 03:02 42.73447 -71.84201 9948 ft 241 kts 249°
2026-04-19 03:02 42.72544 -71.86094 9935 ft 241 kts 225°
2026-04-19 03:03 42.71239 -71.87528 9934 ft 241 kts 218°
2026-04-19 03:03 42.69904 -71.88907 9930 ft 241 kts 219°
2026-04-19 03:03 42.68578 -71.90309 9935 ft 241 kts 219°
2026-04-19 03:03 42.67260 -71.91718 9938 ft 241 kts 219°
2026-04-19 03:04 42.65938 -71.93126 9940 ft 241 kts 219°
2026-04-19 03:04 42.64615 -71.94527 9938 ft 241 kts 219°
2026-04-19 03:04 42.63279 -71.95906 9956 ft 241 kts 217°
2026-04-19 03:04 42.61922 -71.97204 9961 ft 242 kts 216°
2026-04-19 03:05 42.60549 -71.98513 9956 ft 241 kts 217°
2026-04-19 03:05 42.59187 -71.99845 9947 ft 241 kts 218°
2026-04-19 03:05 42.57830 -72.01180 9949 ft 241 kts 217°
2026-04-19 03:05 42.56466 -72.02511 9955 ft 241 kts 217°
2026-04-19 03:06 42.55103 -72.03838 9944 ft 241 kts 217°
2026-04-19 03:06 42.53742 -72.05162 9936 ft 241 kts 217°
2026-04-19 03:06 42.52378 -72.06491 9933 ft 241 kts 217°
2026-04-19 03:06 42.51798 -72.07057 9944 ft 241 kts 217°
2026-04-19 03:15 42.51081 -72.07754 9940 ft 241 kts 217°
2026-04-19 03:15 42.49716 -72.09082 9937 ft 241 kts 217°
2026-04-19 03:15 42.48352 -72.10409 9941 ft 241 kts 218°
2026-04-19 03:15 42.47007 -72.11716 9930 ft 241 kts 217°
2026-04-19 03:16 42.45642 -72.13041 9928 ft 241 kts 218°
2026-04-19 03:16 42.44276 -72.14366 9938 ft 241 kts 218°
2026-04-19 03:16 42.42912 -72.15689 9937 ft 241 kts 217°
2026-04-19 03:16 42.41542 -72.17017 9936 ft 242 kts 218°
2026-04-19 03:17 42.40169 -72.18347 9846 ft 245 kts 218°
2026-04-19 03:17 42.38764 -72.19709 9538 ft 252 kts 218°
2026-04-19 03:17 42.37320 -72.21107 9208 ft 258 kts 218°
2026-04-19 03:17 42.35847 -72.22531 8867 ft 261 kts 218°
2026-04-19 03:18 42.34370 -72.23959 8519 ft 261 kts 218°
2026-04-19 03:18 42.32892 -72.25386 8175 ft 261 kts 218°
2026-04-19 03:18 42.31413 -72.26814 7807 ft 260 kts 218°
2026-04-19 03:18 42.29962 -72.28213 7468 ft 259 kts 218°
2026-04-19 03:19 42.28497 -72.29626 7124 ft 257 kts 218°
2026-04-19 03:19 42.27050 -72.31021 6768 ft 254 kts 218°
2026-04-19 03:19 42.25621 -72.32399 6448 ft 251 kts 219°
2026-04-19 03:19 42.24204 -72.33766 6095 ft 249 kts 218°
2026-04-19 03:20 42.22804 -72.35114 5765 ft 246 kts 218°
2026-04-19 03:20 42.21413 -72.36450 5437 ft 244 kts 218°
2026-04-19 03:20 42.20033 -72.37778 5114 ft 243 kts 218°
2026-04-19 03:20 42.18663 -72.39095 4783 ft 241 kts 217°
2026-04-19 03:21 42.17301 -72.40403 4457 ft 240 kts 217°
2026-04-19 03:21 42.15946 -72.41705 4141 ft 238 kts 216°
2026-04-19 03:21 42.14614 -72.42983 3827 ft 237 kts 216°
2026-04-19 03:21 42.13272 -72.44270 3515 ft 237 kts 215°
2026-04-19 03:22 42.11916 -72.45532 3202 ft 236 kts 212°
2026-04-19 03:22 42.10582 -72.46783 2939 ft 230 kts 218°
2026-04-19 03:22 42.09455 -72.48230 2899 ft 218 kts 223°
2026-04-19 03:22 42.08411 -72.49640 2894 ft 207 kts 223°
2026-04-19 03:23 42.07400 -72.50979 2896 ft 201 kts 222°
2026-04-19 03:23 42.06411 -72.52282 2891 ft 197 kts 222°
2026-04-19 03:23 42.05455 -72.53544 2888 ft 187 kts 221°
2026-04-19 03:23 42.04562 -72.54722 2794 ft 174 kts 221°
2026-04-19 03:24 42.03738 -72.55811 2597 ft 158 kts 221°
2026-04-19 03:24 42.03010 -72.56777 2405 ft 133 kts 220°
2026-04-19 03:24 42.02390 -72.57590 2227 ft 121 kts 219°
2026-04-19 03:24 42.01796 -72.58368 2068 ft 118 kts 219°
2026-04-19 03:25 42.01215 -72.59134 1914 ft 117 kts 219°
2026-04-19 03:25 42.00639 -72.59894 1752 ft 116 kts 220°
2026-04-19 03:25 42.00065 -72.60650 1594 ft 114 kts 218°
2026-04-19 03:25 41.99495 -72.61400 1438 ft 116 kts 220°
2026-04-19 03:26 41.98922 -72.62149 1280 ft 112 kts 221°
2026-04-19 03:26 41.98357 -72.62891 1111 ft 116 kts 220°
2026-04-19 03:26 41.97776 -72.63653 952 ft 119 kts 219°
2026-04-19 03:26 41.97182 -72.64434 792 ft 121 kts 221°
2026-04-19 03:27 41.96580 -72.65227 626 ft 119 kts 221°
2026-04-19 03:27 41.95976 -72.66023 462 ft 122 kts 221°
2026-04-19 03:27 41.95375 -72.66817 304 ft 119 kts 220°
2026-04-19 03:27 41.94827 -72.67548 213 ft 99 kts 220°
2026-04-19 03:28 41.94398 -72.68110 210 ft 76 kts 221°
2026-04-19 03:28 41.94119 -72.68451 204 ft 46 kts 222°
2026-04-19 03:28 41.93934 -72.68686 210 ft 21 kts 225°
2026-04-19 03:28 41.93859 -72.68784 205 ft 15 kts 224°
2026-04-19 03:29 41.93808 -72.68841 206 ft 7 kts 198°
2026-04-19 03:29 41.93764 -72.68834 204 ft 9 kts 159°
2026-04-19 03:29 41.93697 -72.68784 205 ft 11 kts 155°
2026-04-19 03:29 41.93636 -72.68811 204 ft 9 kts 223°
2026-04-19 03:30 41.93618 -72.68833 200 ft 2 kts 223°
2026-04-19 03:30 41.93586 -72.68873 206 ft 1 kts 223°
2026-04-19 03:30 41.93553 -72.68928 200 ft 10 kts 249°
2026-04-19 03:30 41.93580 -72.69014 203 ft 7 kts 308°
2026-04-19 03:31 41.93599 -72.69043 208 ft 7 kts 313°
2026-04-19 03:31 41.93602 -72.69046 208 ft 0 kts 313°
2026-04-19 03:31 41.93608 -72.69056 210 ft 3 kts 313°
2026-04-19 03:32 41.93612 -72.69061 209 ft 0 kts 313°
2026-04-19 03:33 41.93620 -72.69071 206 ft 5 kts 319°
2026-04-19 03:33 41.93670 -72.69055 213 ft 11 kts 52°
2026-04-19 03:33 41.93718 -72.68984 207 ft 7 kts 47°
2026-04-19 03:34 41.93741 -72.68957 205 ft 3 kts 36°
2026-04-19 03:34 41.93751 -72.68947 205 ft 1 kts 36°
2026-04-19 03:34 41.93800 -72.68922 208 ft 15 kts 354°
2026-04-19 03:34 41.93852 -72.69019 201 ft 14 kts 306°
2026-04-19 03:35 41.93890 -72.69082 207 ft 0 kts 309°
2026-04-19 03:35 41.93866 -72.69108 201 ft 9 kts 205°
2026-04-19 03:35 41.93825 -72.69143 204 ft 8 kts 223°
2026-04-19 03:36 41.93773 -72.69209 200 ft 12 kts 223°
2026-04-19 03:36 41.93725 -72.69276 204 ft 7 kts 247°
2026-04-19 03:36 41.93744 -72.69336 205 ft 8 kts 314°
2026-04-19 03:36 41.93781 -72.69387 204 ft 9 kts 314°
2026-04-19 03:37 41.93789 -72.69397 202 ft 0 kts 314°